YO8CLN-10 Weather Reports


Display with metric or nautical units.
time (UTC)temp
F
wind
direction
speed
MPH
gust
MPH
rain 1hr
in
rain 24hr
in
rain mn
in
humidity
%
barometer
mb
20260507064234 62 90 0.0 0.0 0.00 0.00 0.00 61 1111.0
20260507063447 61 90 0.0 0.0 0.00 0.00 0.00 61 1111.0
20260507063234 61 90 0.0 0.0 0.00 0.00 0.00 61 1111.0
20260507062233 59 90 1.0 1.0 0.00 0.00 0.00 65 1111.0
20260507061232 57 180 0.0 0.0 0.00 0.00 0.00 67 1111.0
20260507060232 55 180 0.0 0.0 0.00 0.00 0.00 69 1111.0
20260507055231 53 180 0.0 0.0 0.00 0.00 0.00 70 1111.0
20260507054231 52 180 0.0 0.0 0.00 0.00 0.00 71 1111.0
20260507053230 51 180 0.0 0.0 0.00 0.00 0.00 71 1111.0
20260507052230 51 180 1.0 1.0 0.00 0.00 0.00 71 1111.0
20260507051229 50 180 0.0 0.0 0.00 0.00 0.00 72 1111.0
20260507050228 50 180 0.0 0.0 0.00 0.00 0.00 72 1111.0
20260507045228 49 180 0.0 0.0 0.00 0.00 0.00 73 1111.0
20260507044227 48 180 0.0 1.0 0.00 0.00 0.00 74 1111.0
20260507043227 48 180 2.0 2.0 0.00 0.00 0.00 74 1111.0
20260507042226 47 180 0.0 0.0 0.00 0.00 0.00 75 1111.0
20260507041226 46 180 0.0 0.0 0.00 0.00 0.00 78 1111.0
20260507040225 44 180 0.0 0.0 0.00 0.00 0.00 81 1111.0
20260507035224 39 180 0.0 0.0 0.00 0.00 0.00 82 1111.0
20260507034224 36 180 0.0 0.0 0.00 0.00 0.00 76 1111.0
20260507033223 36 180 0.0 0.0 0.00 0.00 0.00 75 1111.0
20260507032223 36 180 0.0 0.0 0.00 0.00 0.00 74 1111.0
20260507031222 36 180 0.0 0.0 0.00 0.00 0.00 74 1111.0
20260507030222 36 180 0.0 0.0 0.00 0.00 0.00 74 1111.0
20260507025221 36 180 0.0 0.0 0.00 0.00 0.00 74 1111.0
20260507024221 36 180 0.0 0.0 0.00 0.00 0.00 74 1111.0
20260507023220 36 180 2.0 2.0 0.00 0.00 0.00 74 1111.0
20260507022219 36 180 0.0 0.0 0.00 0.00 0.00 73 1111.0
20260507021219 37 180 0.0 0.0 0.00 0.00 0.00 73 1111.0
20260507020218 37 180 0.0 0.0 0.00 0.00 0.00 73 1111.0
20260507015218 37 180 0.0 0.0 0.00 0.00 0.00 73 1111.0
20260507014217 37 180 0.0 0.0 0.00 0.00 0.00 73 1111.0
20260507013216 37 180 0.0 1.0 0.00 0.00 0.00 72 1111.0
20260507012216 37 180 1.0 1.0 0.00 0.00 0.00 72 1111.0
20260507011215 37 180 0.0 0.0 0.00 0.00 0.00 72 1111.0
20260507010216 38 180 0.0 1.0 0.00 0.00 0.00 71 1111.0
20260507005214 38 180 0.0 0.0 0.00 0.00 0.00 71 1111.0
20260507004214 38 180 1.0 1.0 0.00 0.00 0.00 70 1111.0
20260507003213 39 180 0.0 1.0 0.00 0.00 0.00 70 1111.0
20260507002213 39 180 0.0 0.0 0.00 0.00 0.00 69 1111.0
20260507001212 39 180 0.0 0.0 0.00 0.00 0.00 69 1111.0
20260507000212 40 180 0.0 0.0 0.00 0.00 0.00 69 1111.0
20260506235211 40 180 0.0 1.0 0.00 0.00 0.00 69 1111.0
20260506234210 40 180 0.0 0.0 0.00 0.00 0.00 67 1111.0
20260506233210 40 180 0.0 0.0 0.00 0.00 0.00 67 1111.0
20260506232209 41 180 0.0 0.0 0.00 0.00 0.00 67 1111.0
20260506231209 41 180 0.0 1.0 0.00 0.00 0.00 66 1111.0
20260506230208 42 180 0.0 0.0 0.00 0.00 0.00 65 1111.0
20260506225207 42 180 0.0 1.0 0.00 0.00 0.00 64 1111.0
20260506224207 43 180 0.0 0.0 0.00 0.00 0.00 63 1111.0
20260506223206 44 180 0.0 0.0 0.00 0.00 0.00 62 1111.0
20260506222206 44 180 0.0 1.0 0.00 0.00 0.00 62 1111.0
20260506221205 45 180 0.0 0.0 0.00 0.00 0.00 62 1111.0
20260506220204 46 180 1.0 1.0 0.00 0.00 0.00 62 1111.0
20260506215204 46 180 0.0 0.0 0.00 0.00 0.00 61 1111.0
20260506214203 47 180 0.0 0.0 0.00 0.00 0.00 61 1111.0
20260506213203 47 180 0.0 0.0 0.00 0.00 0.00 62 1111.0
20260506212202 46 180 0.0 1.0 0.00 0.00 0.00 62 1111.0
20260506211202 46 202 0.0 0.0 0.00 0.00 0.00 61 1111.0
20260506210201 46 202 0.0 2.0 0.00 0.00 0.00 61 1111.0
20260506205201 46 202 0.0 4.0 0.00 0.00 0.00 61 1111.0
20260506204200 46 202 1.0 2.0 0.00 0.00 0.00 58 1111.0
20260506203159 46 202 0.0 0.0 0.00 0.00 0.00 56 1111.0
20260506202159 48 202 1.0 1.0 0.00 0.00 0.00 55 1111.0
20260506201158 48 202 0.0 1.0 0.00 0.00 0.00 54 1111.0
20260506200158 48 202 0.0 0.0 0.00 0.00 0.00 54 1111.0
20260506195157 49 202 0.0 0.0 0.00 0.00 0.00 54 1111.0
20260506194157 49 202 0.0 0.0 0.00 0.00 0.00 53 1111.0
20260506193156 49 202 0.0 0.0 0.00 0.00 0.00 53 1111.0
20260506192155 49 202 0.0 1.0 0.00 0.00 0.00 52 1111.0
20260506191155 49 202 0.0 0.0 0.00 0.00 0.00 50 1111.0
20260506190154 50 202 0.0 0.0 0.00 0.00 0.00 49 1111.0
20260506185154 50 202 0.0 0.0 0.00 0.00 0.00 47 1111.0
20260506184153 51 202 0.0 0.0 0.00 0.00 0.00 46 1111.0
20260506183153 52 202 0.0 0.0 0.00 0.00 0.00 43 1111.0
20260506182152 53 202 0.0 0.0 0.00 0.00 0.00 42 1111.0
20260506181151 54 202 0.0 0.0 0.00 0.00 0.00 41 1111.0
20260506180151 55 202 0.0 0.0 0.00 0.00 0.00 39 1111.0
20260506175150 57 202 0.0 0.0 0.00 0.00 0.00 38 1111.0
20260506174150 58 202 0.0 0.0 0.00 0.00 0.00 36 1111.0
20260506173149 60 202 0.0 0.0 0.00 0.00 0.00 34 1111.0
20260506172149 62 202 0.0 0.0 0.00 0.00 0.00 33 1111.0
20260506171148 64 202 0.0 0.0 0.00 0.00 0.00 32 1111.0
20260506170147 65 202 0.0 0.0 0.00 0.00 0.00 30 1111.0
20260506165147 68 180 0.0 0.0 0.00 0.00 0.00 26 1111.0
20260506164146 71 202 2.0 3.0 0.00 0.00 0.00 25 1111.0
20260506163146 73 202 0.0 4.0 0.00 0.00 0.00 24 1111.0
20260506162145 75 202 6.0 6.0 0.00 0.00 0.00 23 1111.0
20260506161145 75 202 6.0 6.0 0.00 0.00 0.00 23 1111.0
20260506160144 77 180 4.0 4.0 0.00 0.00 0.00 24 1111.0
20260506155143 77 202 4.0 4.0 0.00 0.00 0.00 24 1111.0
20260506154143 78 180 3.0 3.0 0.00 0.00 0.00 24 1111.0
20260506153142 78 157 1.0 4.0 0.00 0.00 0.00 25 1111.0
20260506152142 78 157 3.0 7.0 0.00 0.00 0.00 26 1111.0
20260506151141 79 180 1.0 7.0 0.00 0.00 0.00 25 1111.0
20260506150141 79 157 2.0 6.0 0.00 0.00 0.00 24 1111.0
20260506145140 78 202 3.0 6.0 0.00 0.00 0.00 26 1111.0
20260506144139 78 202 8.0 20.0 0.00 0.00 0.00 27 1111.0
20260506143139 76 22 0.0 6.0 0.00 0.00 0.00 27 1111.0
20260506142138 76 180 4.0 4.0 0.00 0.00 0.00 28 1111.0
20260506141138 75 270 3.0 8.0 0.00 0.00 0.00 29 1111.0
20260506140539 74 315 8.0 8.0 0.00 0.00 0.00 30 1111.0
20260506140137 74 270 2.0 2.0 0.00 0.00 0.00 31 1111.0
20260506135136 72 157 2.0 2.0 0.00 0.00 0.00 31 1111.0
20260506134136 71 202 0.0 3.0 0.00 0.00 0.00 31 1111.0
20260506133135 72 315 2.0 4.0 0.00 0.00 0.00 31 1111.0
20260506132135 72 337 0.0 8.0 0.00 0.00 0.00 31 1111.0
20260506131134 72 270 1.0 1.0 0.00 0.00 0.00 31 1111.0
20260506130134 73 247 2.0 3.0 0.00 0.00 0.00 31 1111.0
20260506125133 73 292 1.0 1.0 0.00 0.00 0.00 31 1111.0
20260506124132 72 315 5.0 5.0 0.00 0.00 0.00 33 1111.0
20260506123132 73 270 0.0 0.0 0.00 0.00 0.00 32 1111.0
20260506122131 73 270 0.0 0.0 0.00 0.00 0.00 31 1111.0
20260506121131 75 337 3.0 3.0 0.00 0.00 0.00 31 1111.0
20260506120130 75 270 0.0 5.0 0.00 0.00 0.00 31 1111.0
20260506115130 74 292 2.0 5.0 0.00 0.00 0.00 33 1111.0
20260506114129 73 315 0.0 2.0 0.00 0.00 0.00 32 1111.0
20260506113128 75 270 6.0 6.0 0.00 0.00 0.00 31 1111.0
20260506112128 76 270 4.0 4.0 0.00 0.00 0.00 31 1111.0
20260506111127 78 315 4.0 4.0 0.00 0.00 0.00 32 1111.0
20260506110127 77 292 0.0 1.0 0.00 0.00 0.00 32 1111.0
20260506105126 77 0 1.0 1.0 0.00 0.00 0.00 32 1111.0
20260506104126 75 112 0.0 0.0 0.00 0.00 0.00 33 1111.0
20260506103125 74 315 2.0 2.0 0.00 0.00 0.00 33 1111.0
20260506102124 75 22 0.0 1.0 0.00 0.00 0.00 32 1111.0
20260506101124 77 292 3.0 3.0 0.00 0.00 0.00 31 1111.0
20260506100123 77 45 0.0 3.0 0.00 0.00 0.00 31 1111.0
20260506095123 78 337 0.0 1.0 0.00 0.00 0.00 30 1111.0
20260506094122 78 337 5.0 5.0 0.00 0.00 0.00 31 1111.0
20260506093122 77 112 1.0 4.0 0.00 0.00 0.00 33 1111.0
20260506092121 77 22 1.0 4.0 0.00 0.00 0.00 35 1111.0
20260506091121 76 315 0.0 4.0 0.00 0.00 0.00 35 1111.0
20260506090120 76 67 2.0 2.0 0.00 0.00 0.00 34 1111.0
20260506085119 76 315 1.0 1.0 0.00 0.00 0.00 38 1111.0
20260506084119 75 67 0.0 2.0 0.00 0.00 0.00 37 1111.0
20260506083118 74 337 0.0 2.0 0.00 0.00 0.00 38 1111.0
20260506082118 73 337 0.0 2.0 0.00 0.00 0.00 38 1111.0
20260506081117 72 45 2.0 2.0 0.00 0.00 0.00 42 1111.0
20260506080116 70 112 4.0 4.0 0.00 0.00 0.00 44 1111.0
20260506073115 67 22 0.0 0.0 0.00 0.00 0.00 47 1111.0
20260506072114 66 22 0.0 2.0 0.00 0.00 0.00 48 1111.0
20260506071114 64 45 0.0 0.0 0.00 0.00 0.00 50 1111.0
20260506070113 63 22 0.0 1.0 0.00 0.00 0.00 52 1111.0